SPKEA EPSC-EDAH

Flight info

Callsign SPKEA
Flight time 0h 41m
Altitude 1500
Route DCT EPSCS DCT EPSCI DCT 532729N0144323E DCT EPSDB DCT AEPSD DCT EPSDA/N0105A025 DCT 532837N0143235E DCT PESEL DCT 533738N0141603E DCT EDAHE/N0090A010 DCT
Aircraft C172/L-SBDGR/C

Departure

Time 2026-04-30 10:22
Airport Solidarity Szczecin–Goleniów Airport (EPSC)

Arrival

Time 2026-04-30 11:03
Airport Heringsdorf Airport (EDAH)
Time Latitude Longitude Altitude Speed Heading
2026-04-30 10:03 53.58996 14.90078 138 ft 0 kts 217°
2026-04-30 10:14 53.58963 14.90043 138 ft 4 kts 197°
2026-04-30 10:15 53.58938 14.90079 138 ft 7 kts 130°
2026-04-30 10:15 53.58894 14.90131 139 ft 8 kts 192°
2026-04-30 10:15 53.58845 14.90061 139 ft 9 kts 222°
2026-04-30 10:15 53.58784 14.90035 138 ft 10 kts 135°
2026-04-30 10:16 53.58722 14.90157 138 ft 17 kts 132°
2026-04-30 10:16 53.58655 14.90286 138 ft 11 kts 131°
2026-04-30 10:16 53.58603 14.90388 139 ft 11 kts 130°
2026-04-30 10:17 53.58482 14.90622 139 ft 14 kts 129°
2026-04-30 10:17 53.58342 14.90893 139 ft 16 kts 130°
2026-04-30 10:17 53.58268 14.91038 139 ft 16 kts 130°
2026-04-30 10:18 53.58190 14.91190 139 ft 17 kts 133°
2026-04-30 10:18 53.58111 14.91341 139 ft 17 kts 133°
2026-04-30 10:18 53.58036 14.91488 139 ft 16 kts 133°
2026-04-30 10:19 53.57915 14.91721 138 ft 11 kts 131°
2026-04-30 10:19 53.57856 14.91773 139 ft 10 kts 203°
2026-04-30 10:19 53.57817 14.91721 139 ft 0 kts 220°
2026-04-30 10:20 53.57761 14.91594 139 ft 0 kts 316°
2026-04-30 10:20 53.57771 14.91579 139 ft 0 kts 311°
2026-04-30 10:21 53.57796 14.91530 139 ft 18 kts 311°
2026-04-30 10:21 53.57964 14.91205 139 ft 56 kts 311°
2026-04-30 10:21 53.58273 14.90614 259 ft 70 kts 312°
2026-04-30 10:22 53.58593 14.89963 409 ft 74 kts 314°
2026-04-30 10:22 53.58910 14.89363 640 ft 67 kts 314°
2026-04-30 10:22 53.59219 14.88730 768 ft 72 kts 314°
2026-04-30 10:22 53.59553 14.88079 894 ft 74 kts 313°
2026-04-30 10:23 53.59902 14.87406 1020 ft 76 kts 317°
2026-04-30 10:23 53.60058 14.86525 1071 ft 84 kts 269°
2026-04-30 10:23 53.59737 14.85643 1195 ft 98 kts 229°
2026-04-30 10:23 53.59142 14.84986 1320 ft 105 kts 206°
2026-04-30 10:24 53.58453 14.84679 1430 ft 103 kts 197°
2026-04-30 10:24 53.57724 14.84480 1491 ft 110 kts 188°
2026-04-30 10:24 53.56935 14.84301 1495 ft 111 kts 195°
2026-04-30 10:24 53.56282 14.83897 1490 ft 97 kts 227°
2026-04-30 10:25 53.55812 14.83057 1495 ft 100 kts 244°
2026-04-30 10:25 53.55439 14.82106 1493 ft 98 kts 246°
2026-04-30 10:25 53.55073 14.81164 1492 ft 96 kts 245°
2026-04-30 10:25 53.54659 14.80278 1493 ft 95 kts 243°
2026-04-30 10:26 53.54286 14.79350 1496 ft 99 kts 245°
2026-04-30 10:26 53.53857 14.78392 1495 ft 105 kts 230°
2026-04-30 10:26 53.53212 14.77797 1498 ft 108 kts 208°
2026-04-30 10:26 53.52524 14.77308 1497 ft 107 kts 207°
2026-04-30 10:27 53.51828 14.76845 1492 ft 106 kts 206°
2026-04-30 10:27 53.51140 14.76446 1495 ft 105 kts 205°
2026-04-30 10:27 53.50447 14.75984 1485 ft 106 kts 207°
2026-04-30 10:27 53.49734 14.75507 1492 ft 115 kts 205°
2026-04-30 10:28 53.48982 14.75022 1488 ft 112 kts 206°
2026-04-30 10:28 53.48273 14.74544 1493 ft 107 kts 208°
2026-04-30 10:28 53.47597 14.74033 1497 ft 105 kts 208°
2026-04-30 10:28 53.46920 14.73616 1491 ft 104 kts 209°
2026-04-30 10:29 53.46229 14.73041 1498 ft 114 kts 216°
2026-04-30 10:29 53.45552 14.72319 1494 ft 113 kts 221°
2026-04-30 10:29 53.44926 14.71566 1491 ft 108 kts 224°
2026-04-30 10:29 53.44325 14.70864 1493 ft 104 kts 224°
2026-04-30 10:30 53.43711 14.70196 1494 ft 104 kts 218°
2026-04-30 10:30 53.43109 14.69549 1485 ft 104 kts 220°
2026-04-30 10:30 53.42503 14.68863 1490 ft 104 kts 220°
2026-04-30 10:30 53.41917 14.68172 1486 ft 104 kts 223°
2026-04-30 10:31 53.41315 14.67484 1465 ft 103 kts 221°
2026-04-30 10:31 53.40680 14.66831 1221 ft 110 kts 220°
2026-04-30 10:31 53.40168 14.65951 1012 ft 102 kts 254°
2026-04-30 10:31 53.40162 14.64898 842 ft 87 kts 300°
2026-04-30 10:32 53.40273 14.63921 711 ft 89 kts 277°
2026-04-30 10:32 53.40280 14.62883 616 ft 87 kts 281°
2026-04-30 10:32 53.40319 14.61910 546 ft 79 kts 262°
2026-04-30 10:32 53.39804 14.61491 507 ft 89 kts 189°
2026-04-30 10:33 53.39238 14.61606 481 ft 79 kts 130°
2026-04-30 10:33 53.39098 14.62487 197 ft 89 kts 88°
2026-04-30 10:33 53.39058 14.63494 59 ft 84 kts 85°
2026-04-30 10:33 53.39027 14.64508 229 ft 89 kts 84°
2026-04-30 10:34 53.39038 14.65475 490 ft 86 kts 80°
2026-04-30 10:34 53.39295 14.66247 743 ft 73 kts 16°
2026-04-30 10:34 53.39828 14.66215 891 ft 81 kts 354°
2026-04-30 10:34 53.40259 14.65749 878 ft 82 kts 298°
2026-04-30 10:35 53.40305 14.64752 801 ft 87 kts 282°
2026-04-30 10:35 53.40346 14.63703 705 ft 88 kts 282°
2026-04-30 10:35 53.40406 14.62691 620 ft 85 kts 284°
2026-04-30 10:35 53.40442 14.61778 597 ft 75 kts 272°
2026-04-30 10:36 53.40022 14.61163 503 ft 94 kts 193°
2026-04-30 10:36 53.39424 14.61271 437 ft 85 kts 140°
2026-04-30 10:36 53.39125 14.62065 223 ft 81 kts 96°
2026-04-30 10:36 53.39080 14.63075 49 ft 88 kts 88°
2026-04-30 10:37 53.39032 14.64148 158 ft 93 kts 86°
2026-04-30 10:37 53.39007 14.65120 477 ft 82 kts 82°
2026-04-30 10:37 53.38987 14.66064 714 ft 82 kts 82°
2026-04-30 10:37 53.39039 14.66951 957 ft 69 kts 52°
2026-04-30 10:38 53.39392 14.67413 1123 ft 65 kts
2026-04-30 10:38 53.39816 14.67374 1232 ft 58 kts 329°
2026-04-30 10:38 53.40044 14.66729 1340 ft 78 kts 287°
2026-04-30 10:38 53.40043 14.65721 1438 ft 94 kts 278°
2026-04-30 10:39 53.40057 14.64637 1491 ft 94 kts 279°
2026-04-30 10:39 53.40080 14.63510 1489 ft 100 kts 278°
2026-04-30 10:39 53.40099 14.62325 1485 ft 103 kts 279°
2026-04-30 10:39 53.40113 14.61113 1485 ft 105 kts 280°
2026-04-30 10:40 53.40090 14.59903 1478 ft 98 kts 270°
2026-04-30 10:40 53.39970 14.58829 1476 ft 89 kts 275°
2026-04-30 10:40 53.40148 14.57922 1477 ft 79 kts 314°
2026-04-30 10:40 53.40606 14.57476 1482 ft 76 kts 344°
2026-04-30 10:41 53.41112 14.57462 1478 ft 70 kts
2026-04-30 10:41 53.41583 14.57605 1480 ft 70 kts
2026-04-30 10:41 53.42072 14.57826 1480 ft 74 kts 12°
2026-04-30 10:41 53.42587 14.58063 1479 ft 79 kts 10°
2026-04-30 10:42 53.43128 14.58256 1477 ft 80 kts
2026-04-30 10:42 53.43671 14.58516 1482 ft 82 kts 15°
2026-04-30 10:42 53.44207 14.58876 1474 ft 82 kts 16°
2026-04-30 10:42 53.44745 14.59176 1475 ft 80 kts
2026-04-30 10:43 53.45289 14.59017 1479 ft 78 kts 334°
2026-04-30 10:43 53.45727 14.58464 1477 ft 79 kts 321°
2026-04-30 10:43 53.46138 14.57839 1571 ft 81 kts 321°
2026-04-30 10:43 53.46550 14.57185 1765 ft 81 kts 321°
2026-04-30 10:44 53.46914 14.56462 1935 ft 82 kts 315°
2026-04-30 10:44 53.47263 14.55702 2121 ft 81 kts 314°
2026-04-30 10:44 53.47591 14.54924 2314 ft 84 kts 300°
2026-04-30 10:44 53.47726 14.53944 2467 ft 92 kts 289°
2026-04-30 10:45 53.47841 14.52803 2485 ft 103 kts 288°
2026-04-30 10:45 53.48003 14.51682 2483 ft 91 kts 295°
2026-04-30 10:45 53.48166 14.50730 2478 ft 81 kts 296°
2026-04-30 10:45 53.48313 14.49837 2466 ft 77 kts 297°
2026-04-30 10:46 53.48478 14.48973 2473 ft 84 kts 295°
2026-04-30 10:46 53.48629 14.47912 2483 ft 101 kts 291°
2026-04-30 10:46 53.48758 14.46784 2481 ft 96 kts 287°
2026-04-30 10:46 53.48888 14.45705 2471 ft 91 kts 292°
2026-04-30 10:47 53.49048 14.44648 2482 ft 99 kts 291°
2026-04-30 10:47 53.49175 14.43438 2477 ft 109 kts 286°
2026-04-30 10:47 53.49294 14.42143 2474 ft 112 kts 287°
2026-04-30 10:47 53.49487 14.40873 2468 ft 113 kts 293°
2026-04-30 10:48 53.49695 14.39669 2470 ft 104 kts 295°
2026-04-30 10:48 53.49885 14.38565 2460 ft 92 kts 294°
2026-04-30 10:48 53.50056 14.37514 2467 ft 95 kts 294°
2026-04-30 10:48 53.50225 14.36416 2464 ft 99 kts 293°
2026-04-30 10:49 53.50401 14.35236 2466 ft 108 kts 291°
2026-04-30 10:49 53.50582 14.33979 2459 ft 112 kts 290°
2026-04-30 10:49 53.50854 14.32778 2453 ft 107 kts 314°
2026-04-30 10:49 53.51402 14.31955 2462 ft 105 kts 329°
2026-04-30 10:50 53.52017 14.31291 2472 ft 106 kts 327°
2026-04-30 10:50 53.52649 14.30615 2468 ft 107 kts 330°
2026-04-30 10:50 53.53234 14.29853 2464 ft 107 kts 321°
2026-04-30 10:50 53.53818 14.29082 2458 ft 106 kts 330°
2026-04-30 10:51 53.54488 14.28722 2458 ft 96 kts 348°
2026-04-30 10:51 53.55133 14.28495 2466 ft 95 kts 349°
2026-04-30 10:51 53.55808 14.28300 2476 ft 101 kts 349°
2026-04-30 10:51 53.56516 14.28101 2476 ft 104 kts 352°
2026-04-30 10:52 53.57229 14.27938 2474 ft 104 kts 350°
2026-04-30 10:52 53.57954 14.27709 2475 ft 105 kts 349°
2026-04-30 10:52 53.58669 14.27470 2476 ft 106 kts 349°
2026-04-30 10:52 53.59403 14.27309 2476 ft 108 kts 353°
2026-04-30 10:53 53.60154 14.27196 2476 ft 108 kts 353°
2026-04-30 10:53 53.60902 14.27089 2475 ft 108 kts 354°
2026-04-30 10:53 53.61621 14.26936 2476 ft 97 kts 349°
2026-04-30 10:53 53.62266 14.26730 2483 ft 95 kts 351°
2026-04-30 10:54 53.62943 14.26622 2484 ft 97 kts 353°
2026-04-30 10:54 53.63615 14.26484 2482 ft 98 kts 351°
2026-04-30 10:54 53.64318 14.26316 2483 ft 104 kts 349°
2026-04-30 10:54 53.65046 14.26147 2482 ft 106 kts 352°
2026-04-30 10:55 53.65786 14.26018 2478 ft 108 kts 353°
2026-04-30 10:55 53.66540 14.25887 2478 ft 108 kts 353°
2026-04-30 10:55 53.67289 14.25756 2483 ft 107 kts 354°
2026-04-30 10:55 53.68036 14.25565 2492 ft 108 kts 349°
2026-04-30 10:56 53.68770 14.25373 2495 ft 108 kts 353°
2026-04-30 10:56 53.69527 14.25278 2494 ft 108 kts 354°
2026-04-30 10:56 53.70283 14.25095 2495 ft 108 kts 351°
2026-04-30 10:56 53.71037 14.24885 2494 ft 108 kts 350°
2026-04-30 10:57 53.71779 14.24675 2495 ft 108 kts 350°
2026-04-30 10:57 53.72533 14.24508 2491 ft 108 kts 348°
2026-04-30 10:57 53.73259 14.24196 2493 ft 106 kts 345°
2026-04-30 10:57 53.73972 14.23889 2494 ft 105 kts 347°
2026-04-30 10:58 53.74697 14.23634 2494 ft 106 kts 350°
2026-04-30 10:58 53.75436 14.23516 2495 ft 106 kts 354°
2026-04-30 10:58 53.76185 14.23451 2495 ft 106 kts 355°
2026-04-30 10:58 53.76926 14.23389 2391 ft 105 kts 354°
2026-04-30 10:59 53.77649 14.23310 2260 ft 102 kts 351°
2026-04-30 10:59 53.78345 14.23055 2134 ft 101 kts 346°
2026-04-30 10:59 53.79030 14.22737 2006 ft 101 kts 343°
2026-04-30 10:59 53.79698 14.22395 1880 ft 100 kts 339°
2026-04-30 11:00 53.80357 14.21977 1754 ft 100 kts 340°
2026-04-30 11:00 53.81031 14.21550 1563 ft 104 kts 338°
2026-04-30 11:00 53.81707 14.21146 1433 ft 103 kts 338°
2026-04-30 11:00 53.82376 14.20723 1284 ft 103 kts 339°
2026-04-30 11:01 53.83054 14.20311 1134 ft 105 kts 338°
2026-04-30 11:01 53.83756 14.19856 1016 ft 110 kts 336°
2026-04-30 11:01 53.84438 14.19402 986 ft 102 kts 336°
2026-04-30 11:01 53.85086 14.18957 1030 ft 96 kts 350°
2026-04-30 11:02 53.85757 14.19163 996 ft 102 kts
2026-04-30 11:02 53.86422 14.19435 1032 ft 87 kts
2026-04-30 11:02 53.86950 14.19115 943 ft 85 kts 316°
2026-04-30 11:02 53.87348 14.18315 609 ft 95 kts 303°
2026-04-30 11:03 53.87539 14.17250 244 ft 88 kts 287°
2026-04-30 11:03 53.87677 14.16399 73 ft 59 kts 286°
2026-04-30 11:03 53.87764 14.15882 70 ft 35 kts 284°
2026-04-30 11:04 53.87855 14.15334 70 ft 15 kts 286°
2026-04-30 11:04 53.87813 14.15258 70 ft 9 kts 195°
2026-04-30 11:04 53.87769 14.15237 70 ft 5 kts 189°
2026-04-30 11:04 53.87746 14.15307 70 ft 11 kts 111°
2026-04-30 11:05 53.87719 14.15445 70 ft 12 kts 112°
2026-04-30 11:05 53.87690 14.15564 70 ft 9 kts 110°
2026-04-30 11:05 53.87645 14.15648 70 ft 6 kts 208°
2026-04-30 11:05 53.87633 14.15662 70 ft 1 kts 33°